Time,TemperatureF,DewpointF,PressureIn,WindDirection,WindDirectionDegrees,WindSpeedMPH,WindSpeedGustMPH,Humidity,HourlyPrecipIn,Conditions,Clouds,dailyrainin,SoftwareType,DateUTC
2013-06-29 00:01:00,71.8,55.4,29.94,SSE,168,0.0,6.0,56,0.00,,,0.00,WUHU216DAVISVP2,2013-06-29 05:01:00,
2013-06-29 00:06:00,71.6,55.2,29.94,NW,321,3.0,6.0,56,0.00,,,0.00,WUHU216DAVISVP2,2013-06-29 05:06:00,
2013-06-29 00:11:00,71.6,55.2,29.94,NW,320,0.0,6.0,56,0.00,,,0.00,WUHU216DAVISVP2,2013-06-29 05:11:00,
2013-06-29 00:16:00,71.4,55.5,29.94,WNW,293,3.0,6.0,57,0.00,,,0.00,WUHU216DAVISVP2,2013-06-29 05:16:00,
2013-06-29 00:21:00,71.3,55.4,29.94,NW,310,0.0,8.0,57,0.00,,,0.00,WUHU216DAVISVP2,2013-06-29 05:21:00,
2013-06-29 00:26:00,71.1,55.3,29.94,NNW,330,2.0,8.0,57,0.00,,,0.00,WUHU216DAVISVP2,2013-06-29 05:26:00,
2013-06-29 00:31:00,71.1,55.3,29.94,North,5,1.0,8.0,57,0.00,,,0.00,WUHU216DAVISVP2,2013-06-29 05:31:00,
2013-06-29 00:36:00,70.9,55.1,29.94,NW,314,1.0,8.0,57,0.00,,,0.00,WUHU216DAVISVP2,2013-06-29 05:36:00,
2013-06-29 00:41:00,70.9,55.1,29.94,West,276,1.0,3.0,57,0.00,,,0.00,WUHU216DAVISVP2,2013-06-29 05:41:00,
2013-06-29 00:46:00,70.8,55.5,29.94,NW,318,1.0,4.0,58,0.00,,,0.00,WUHU216DAVISVP2,2013-06-29 05:46:00,
2013-06-29 00:51:00,70.6,55.3,29.94,North,351,0.0,4.0,58,0.00,,,0.00,WUHU216DAVISVP2,2013-06-29 05:51:00,
2013-06-29 00:56:00,70.5,55.2,29.94,North,3,0.0,4.0,58,0.00,,,0.00,WUHU216DAVISVP2,2013-06-29 05:56:00,
2013-06-29 01:01:00,70.3,55.0,29.93,NW,320,2.0,4.0,58,0.00,,,0.00,WUHU216DAVISVP2,2013-06-29 06:01:00,
2013-06-29 01:06:00,70.2,54.7,29.93,NW,315,2.0,4.0,58,0.00,,,0.00,WUHU216DAVISVP2,2013-06-29 06:06:00,
2013-06-29 01:11:00,70.2,54.9,29.93,NNW,338,2.0,7.0,58,0.00,,,0.00,WUHU216DAVISVP2,2013-06-29 06:11:00,
2013-06-29 01:16:00,70.3,55.0,29.93,WNW,303,1.0,7.0,58,0.00,,,0.00,WUHU216DAVISVP2,2013-06-29 06:16:00,
2013-06-29 01:21:00,70.1,55.3,29.93,North,352,0.0,7.0,59,0.00,,,0.00,WUHU216DAVISVP2,2013-06-29 06:21:00,
2013-06-29 01:26:00,69.9,55.1,29.93,NW,317,1.0,7.0,59,0.00,,,0.00,WUHU216DAVISVP2,2013-06-29 06:26:00,
2013-06-29 01:31:00,69.7,55.4,29.93,NW,310,1.0,3.0,60,0.00,,,0.00,WUHU216DAVISVP2,2013-06-29 06:31:00,
2013-06-29 01:36:00,69.4,55.1,29.93,NW,316,1.0,4.0,60,0.00,,,0.00,WUHU216DAVISVP2,2013-06-29 06:36:00,
2013-06-29 01:41:00,69.2,55.4,29.93,NW,319,0.0,4.0,61,0.00,,,0.00,WUHU216DAVISVP2,2013-06-29 06:41:00,
2013-06-29 01:46:00,69.0,55.6,29.93,WNW,298,2.0,4.0,62,0.00,,,0.00,WUHU216DAVISVP2,2013-06-29 06:46:00,
2013-06-29 01:51:00,68.8,55.4,29.93,WNW,292,2.0,4.0,62,0.00,,,0.00,WUHU216DAVISVP2,2013-06-29 06:51:00,
2013-06-29 01:56:00,68.6,55.7,29.93,WNW,282,1.0,4.0,63,0.00,,,0.00,WUHU216DAVISVP2,2013-06-29 06:56:00,
2013-06-29 02:01:00,68.4,55.7,29.93,NW,321,0.0,4.0,64,0.00,,,0.00,WUHU216DAVISVP2,2013-06-29 07:01:00,
2013-06-29 02:06:00,68.3,55.6,29.94,WNW,302,2.0,4.0,64,0.00,,,0.00,WUHU216DAVISVP2,2013-06-29 07:06:00,
2013-06-29 02:11:00,68.2,55.7,29.93,West,281,1.0,6.0,64,0.00,,,0.00,WUHU216DAVISVP2,2013-06-29 07:11:00,
2013-06-29 02:16:00,68.2,55.6,29.94,NW,315,1.0,6.0,64,0.00,,,0.00,WUHU216DAVISVP2,2013-06-29 07:16:00,
2013-06-29 02:21:00,68.1,56.1,29.94,NNE,30,1.0,6.0,65,0.00,,,0.00,WUHU216DAVISVP2,2013-06-29 07:21:00,
2013-06-29 02:26:00,68.0,56.0,29.93,NW,307,1.0,6.0,65,0.00,,,0.00,WUHU216DAVISVP2,2013-06-29 07:26:00,
2013-06-29 02:31:00,67.9,55.9,29.93,WNW,284,1.0,4.0,65,0.00,,,0.00,WUHU216DAVISVP2,2013-06-29 07:31:00,
2013-06-29 02:36:00,68.0,56.0,29.94,WNW,292,1.0,4.0,65,0.00,,,0.00,WUHU216DAVISVP2,2013-06-29 07:36:00,
2013-06-29 02:41:00,68.0,55.8,29.93,NNW,333,1.0,4.0,65,0.00,,,0.00,WUHU216DAVISVP2,2013-06-29 07:41:00,
2013-06-29 02:46:00,67.9,55.7,29.93,South,177,1.0,4.0,65,0.00,,,0.00,WUHU216DAVISVP2,2013-06-29 07:46:00,
2013-06-29 02:51:00,67.8,56.0,29.93,NW,318,1.0,4.0,66,0.00,,,0.00,WUHU216DAVISVP2,2013-06-29 07:51:00,
2013-06-29 02:56:00,67.6,55.8,29.93,NW,324,3.0,4.0,66,0.00,,,0.00,WUHU216DAVISVP2,2013-06-29 07:56:00,
2013-06-29 03:01:00,67.5,56.2,29.93,NW,304,1.0,5.0,67,0.00,,,0.00,WUHU216DAVISVP2,2013-06-29 08:01:00,
2013-06-29 03:06:00,67.5,56.2,29.94,NNW,331,1.0,5.0,67,0.00,,,0.00,WUHU216DAVISVP2,2013-06-29 08:06:00,
2013-06-29 03:11:00,67.4,56.1,29.94,NW,321,1.0,5.0,67,0.00,,,0.00,WUHU216DAVISVP2,2013-06-29 08:11:00,
2013-06-29 03:16:00,67.4,56.1,29.94,WNW,299,1.0,5.0,67,0.00,,,0.00,WUHU216DAVISVP2,2013-06-29 08:16:00,
2013-06-29 03:21:00,67.3,56.4,29.94,WNW,290,0.0,5.0,68,0.00,,,0.00,WUHU216DAVISVP2,2013-06-29 08:21:00,
2013-06-29 03:26:00,67.2,56.3,29.93,West,281,3.0,5.0,68,0.00,,,0.00,WUHU216DAVISVP2,2013-06-29 08:26:00,
2013-06-29 03:31:00,67.2,56.3,29.93,NW,307,1.0,5.0,68,0.00,,,0.00,WUHU216DAVISVP2,2013-06-29 08:31:00,
2013-06-29 03:36:00,67.0,56.5,29.93,NNW,341,1.0,3.0,69,0.00,,,0.00,WUHU216DAVISVP2,2013-06-29 08:36:00,
2013-06-29 03:41:00,66.9,56.4,29.94,NW,323,0.0,3.0,69,0.00,,,0.00,WUHU216DAVISVP2,2013-06-29 08:41:00,
2013-06-29 03:46:00,66.7,56.4,29.93,West,281,2.0,4.0,69,0.00,,,0.00,WUHU216DAVISVP2,2013-06-29 08:46:00,
2013-06-29 03:51:00,66.6,56.7,29.93,WNW,299,1.0,4.0,70,0.00,,,0.00,WUHU216DAVISVP2,2013-06-29 08:51:00,
2013-06-29 03:56:00,66.4,56.5,29.94,NW,307,1.0,4.0,70,0.00,,,0.00,WUHU216DAVISVP2,2013-06-29 08:56:00,
2013-06-29 04:01:00,66.3,56.4,29.94,NNW,327,1.0,4.0,70,0.00,,,0.00,WUHU216DAVISVP2,2013-06-29 09:01:00,
2013-06-29 04:06:00,66.1,56.6,29.94,NW,326,1.0,4.0,71,0.00,,,0.00,WUHU216DAVISVP2,2013-06-29 09:06:00,
2013-06-29 04:11:00,66.1,56.6,29.94,West,271,1.0,4.0,71,0.00,,,0.00,WUHU216DAVISVP2,2013-06-29 09:11:00,
2013-06-29 04:16:00,65.9,56.8,29.94,WNW,299,2.0,8.0,72,0.00,,,0.00,WUHU216DAVISVP2,2013-06-29 09:16:00,
2013-06-29 04:21:00,65.8,56.7,29.94,NNW,340,1.0,8.0,72,0.00,,,0.00,WUHU216DAVISVP2,2013-06-29 09:21:00,
2013-06-29 04:26:00,65.7,56.6,29.94,NNW,342,1.0,8.0,72,0.00,,,0.00,WUHU216DAVISVP2,2013-06-29 09:26:00,
2013-06-29 04:31:00,65.6,56.8,29.94,NW,304,1.0,6.0,73,0.00,,,0.00,WUHU216DAVISVP2,2013-06-29 09:31:00,
2013-06-29 04:36:00,65.5,56.8,29.94,NNW,343,1.0,7.0,73,0.00,,,0.00,WUHU216DAVISVP2,2013-06-29 09:36:00,
2013-06-29 04:41:00,65.5,57.1,29.95,West,271,2.0,7.0,74,0.00,,,0.00,WUHU216DAVISVP2,2013-06-29 09:41:00,
2013-06-29 04:46:00,65.3,56.9,29.94,SW,236,3.0,7.0,74,0.00,,,0.00,WUHU216DAVISVP2,2013-06-29 09:46:00,
2013-06-29 04:51:00,65.2,56.8,29.94,NNW,330,2.0,7.0,74,0.00,,,0.00,WUHU216DAVISVP2,2013-06-29 09:51:00,
2013-06-29 04:56:00,65.1,57.1,29.94,NW,320,2.0,6.0,75,0.00,,,0.00,WUHU216DAVISVP2,2013-06-29 09:56:00,
2013-06-29 05:01:00,65.1,57.1,29.95,NW,311,1.0,6.0,75,0.00,,,0.00,WUHU216DAVISVP2,2013-06-29 10:01:00,
2013-06-29 05:06:00,65.0,57.0,29.95,NW,322,1.0,6.0,75,0.00,,,0.00,WUHU216DAVISVP2,2013-06-29 10:06:00,
2013-06-29 05:11:00,64.9,57.3,29.95,NW,319,2.0,6.0,76,0.00,,,0.00,WUHU216DAVISVP2,2013-06-29 10:11:00,
2013-06-29 05:16:00,64.7,57.1,29.95,NW,306,2.0,5.0,76,0.00,,,0.00,WUHU216DAVISVP2,2013-06-29 10:16:00,
2013-06-29 05:21:00,64.5,57.2,29.95,NW,319,1.0,5.0,77,0.00,,,0.00,WUHU216DAVISVP2,2013-06-29 10:21:00,
2013-06-29 05:26:00,64.3,57.0,29.95,North,0,1.0,5.0,77,0.00,,,0.00,WUHU216DAVISVP2,2013-06-29 10:26:00,
2013-06-29 05:31:00,64.2,57.3,29.95,NW,316,1.0,5.0,78,0.00,,,0.00,WUHU216DAVISVP2,2013-06-29 10:31:00,
2013-06-29 05:36:00,64.2,57.3,29.95,North,1,1.0,5.0,78,0.00,,,0.00,WUHU216DAVISVP2,2013-06-29 10:36:00,
2013-06-29 05:41:00,64.1,57.2,29.95,NW,311,1.0,5.0,78,0.00,,,0.00,WUHU216DAVISVP2,2013-06-29 10:41:00,
2013-06-29 05:46:00,64.0,57.4,29.95,NNW,328,1.0,3.0,79,0.00,,,0.00,WUHU216DAVISVP2,2013-06-29 10:46:00,
2013-06-29 05:51:00,63.8,57.2,29.95,NW,323,2.0,3.0,79,0.00,,,0.00,WUHU216DAVISVP2,2013-06-29 10:51:00,
2013-06-29 05:56:00,63.7,57.5,29.95,NW,307,3.0,6.0,80,0.00,,,0.00,WUHU216DAVISVP2,2013-06-29 10:56:00,
2013-06-29 06:01:00,63.6,57.4,29.95,NW,320,1.0,6.0,80,0.00,,,0.00,WUHU216DAVISVP2,2013-06-29 11:01:00,
2013-06-29 06:06:00,63.5,57.6,29.96,NW,309,3.0,6.0,81,0.00,,,0.00,WUHU216DAVISVP2,2013-06-29 11:06:00,
2013-06-29 06:11:00,63.5,57.6,29.96,NNW,338,1.0,6.0,81,0.00,,,0.00,WUHU216DAVISVP2,2013-06-29 11:11:00,
2013-06-29 06:16:00,63.3,57.4,29.96,NW,306,4.0,5.0,81,0.00,,,0.00,WUHU216DAVISVP2,2013-06-29 11:16:00,
2013-06-29 06:21:00,63.3,57.4,29.96,NNW,334,1.0,6.0,81,0.00,,,0.00,WUHU216DAVISVP2,2013-06-29 11:21:00,
2013-06-29 06:26:00,63.3,57.8,29.96,West,275,2.0,6.0,82,0.00,,,0.00,WUHU216DAVISVP2,2013-06-29 11:26:00,
2013-06-29 06:31:00,63.3,57.8,29.96,NW,309,2.0,7.0,82,0.00,,,0.00,WUHU216DAVISVP2,2013-06-29 11:31:00,
2013-06-29 06:36:00,63.4,57.9,29.96,NW,316,2.0,7.0,82,0.00,,,0.00,WUHU216DAVISVP2,2013-06-29 11:36:00,
2013-06-29 06:41:00,63.4,57.9,29.96,NNW,329,2.0,7.0,82,0.00,,,0.00,WUHU216DAVISVP2,2013-06-29 11:41:00,
2013-06-29 06:46:00,63.6,58.0,29.96,North,1,1.0,7.0,82,0.00,,,0.00,WUHU216DAVISVP2,2013-06-29 11:46:00,
2013-06-29 06:51:00,63.7,58.1,29.96,NW,323,3.0,6.0,82,0.00,,,0.00,WUHU216DAVISVP2,2013-06-29 11:51:00,
2013-06-29 06:56:00,63.9,58.3,29.96,NW,312,2.0,7.0,82,0.00,,,0.00,WUHU216DAVISVP2,2013-06-29 11:56:00,
2013-06-29 07:01:00,64.1,58.5,29.96,NW,309,3.0,7.0,82,0.00,,,0.00,WUHU216DAVISVP2,2013-06-29 12:01:00,
2013-06-29 07:06:00,64.3,58.4,29.96,NNW,339,2.0,7.0,81,0.00,,,0.00,WUHU216DAVISVP2,2013-06-29 12:06:00,
2013-06-29 07:11:00,64.6,58.7,29.96,NNW,335,2.0,7.0,81,0.00,,,0.00,WUHU216DAVISVP2,2013-06-29 12:11:00,
2013-06-29 07:16:00,64.8,58.9,29.96,NW,316,4.0,7.0,81,0.00,,,0.00,WUHU216DAVISVP2,2013-06-29 12:16:00,
2013-06-29 07:21:00,65.0,58.7,29.96,WNW,303,2.0,8.0,80,0.00,,,0.00,WUHU216DAVISVP2,2013-06-29 12:21:00,
2013-06-29 07:26:00,65.1,58.8,29.96,NNW,336,2.0,10.0,80,0.00,,,0.00,WUHU216DAVISVP2,2013-06-29 12:26:00,
2013-06-29 07:31:00,65.3,59.0,29.96,West,280,3.0,10.0,80,0.00,,,0.00,WUHU216DAVISVP2,2013-06-29 12:31:00,
2013-06-29 07:36:00,65.5,58.9,29.96,NW,307,2.0,10.0,79,0.00,,,0.00,WUHU216DAVISVP2,2013-06-29 12:36:00,
2013-06-29 07:41:00,65.8,59.2,29.96,NNW,345,2.0,10.0,79,0.00,,,0.00,WUHU216DAVISVP2,2013-06-29 12:41:00,
2013-06-29 07:46:00,65.9,58.9,29.96,WNW,298,3.0,7.0,78,0.00,,,0.00,WUHU216DAVISVP2,2013-06-29 12:46:00,
2013-06-29 07:51:00,66.0,59.0,29.96,NW,320,5.0,10.0,78,0.00,,,0.00,WUHU216DAVISVP2,2013-06-29 12:51:00,
2013-06-29 07:56:00,66.2,59.2,29.97,WNW,299,3.0,10.0,78,0.00,,,0.00,WUHU216DAVISVP2,2013-06-29 12:56:00,
2013-06-29 08:01:00,66.5,59.2,29.97,WNW,292,4.0,10.0,77,0.00,,,0.00,WUHU216DAVISVP2,2013-06-29 13:01:00,
2013-06-29 08:06:00,66.9,59.6,29.97,NW,323,3.0,10.0,77,0.00,,,0.00,WUHU216DAVISVP2,2013-06-29 13:06:00,
2013-06-29 08:11:00,67.1,59.4,29.96,NNW,345,7.0,9.0,76,0.00,,,0.00,WUHU216DAVISVP2,2013-06-29 13:11:00,
2013-06-29 08:16:00,67.3,58.9,29.96,NW,323,2.0,9.0,74,0.00,,,0.00,WUHU216DAVISVP2,2013-06-29 13:16:00,
2013-06-29 08:21:00,67.5,59.1,29.96,NW,323,4.0,9.0,74,0.00,,,0.00,WUHU216DAVISVP2,2013-06-29 13:21:00,
2013-06-29 08:26:00,67.6,58.4,29.96,NW,316,4.0,10.0,72,0.00,,,0.00,WUHU216DAVISVP2,2013-06-29 13:26:00,
2013-06-29 08:31:00,67.9,58.7,29.97,NW,314,4.0,10.0,72,0.00,,,0.00,WUHU216DAVISVP2,2013-06-29 13:31:00,
2013-06-29 08:36:00,68.1,58.1,29.97,NNW,335,4.0,10.0,70,0.00,,,0.00,WUHU216DAVISVP2,2013-06-29 13:36:00,
2013-06-29 08:41:00,68.3,58.3,29.97,NNE,23,2.0,12.0,70,0.00,,,0.00,WUHU216DAVISVP2,2013-06-29 13:41:00,
2013-06-29 08:46:00,68.5,58.1,29.97,WNW,296,4.0,16.0,69,0.00,,,0.00,WUHU216DAVISVP2,2013-06-29 13:46:00,
2013-06-29 08:51:00,68.7,58.7,29.97,North,10,2.0,16.0,70,0.00,,,0.00,WUHU216DAVISVP2,2013-06-29 13:51:00,
2013-06-29 08:56:00,69.0,58.2,29.97,NNW,332,4.0,16.0,68,0.00,,,0.00,WUHU216DAVISVP2,2013-06-29 13:56:00,
2013-06-29 09:01:00,69.1,58.7,29.97,NNW,335,3.0,16.0,69,0.00,,,0.00,WUHU216DAVISVP2,2013-06-29 14:01:00,
2013-06-29 09:06:00,69.5,58.2,29.97,NNW,333,6.0,12.0,67,0.00,,,0.00,WUHU216DAVISVP2,2013-06-29 14:06:00,
2013-06-29 09:11:00,69.5,57.8,29.97,NNW,328,7.0,14.0,66,0.00,,,0.00,WUHU216DAVISVP2,2013-06-29 14:11:00,
2013-06-29 09:16:00,69.7,58.0,29.97,NNW,337,3.0,14.0,66,0.00,,,0.00,WUHU216DAVISVP2,2013-06-29 14:16:00,
2013-06-29 09:21:00,69.9,58.2,29.97,NNW,329,4.0,14.0,66,0.00,,,0.00,WUHU216DAVISVP2,2013-06-29 14:21:00,
2013-06-29 09:26:00,69.9,58.6,29.97,North,355,7.0,14.0,67,0.00,,,0.00,WUHU216DAVISVP2,2013-06-29 14:26:00,
2013-06-29 09:31:00,70.0,58.7,29.97,NNW,340,3.0,12.0,67,0.00,,,0.00,WUHU216DAVISVP2,2013-06-29 14:31:00,
2013-06-29 09:36:00,70.4,59.3,29.97,NW,324,2.0,12.0,68,0.00,,,0.00,WUHU216DAVISVP2,2013-06-29 14:36:00,
2013-06-29 09:41:00,70.5,59.0,29.97,NE,35,4.0,13.0,67,0.00,,,0.00,WUHU216DAVISVP2,2013-06-29 14:41:00,
2013-06-29 09:46:00,70.0,59.0,29.97,NW,324,6.0,13.0,68,0.00,,,0.00,WUHU216DAVISVP2,2013-06-29 14:46:00,
2013-06-29 09:51:00,69.7,58.7,29.97,NNW,340,4.0,13.0,68,0.00,,,0.00,WUHU216DAVISVP2,2013-06-29 14:51:00,
2013-06-29 09:56:00,69.4,59.2,29.97,NE,41,4.0,13.0,70,0.00,,,0.00,WUHU216DAVISVP2,2013-06-29 14:56:00,
2013-06-29 10:01:00,69.9,59.7,29.97,North,359,3.0,12.0,70,0.00,,,0.00,WUHU216DAVISVP2,2013-06-29 15:01:00,
2013-06-29 10:06:00,70.0,59.5,29.98,NW,317,5.0,12.0,69,0.00,,,0.00,WUHU216DAVISVP2,2013-06-29 15:06:00,
2013-06-29 10:11:00,69.6,59.6,29.98,WNW,301,5.0,12.0,70,0.00,,,0.00,WUHU216DAVISVP2,2013-06-29 15:11:00,
2013-06-29 10:16:00,69.5,59.5,29.98,North,358,4.0,12.0,70,0.00,,,0.00,WUHU216DAVISVP2,2013-06-29 15:16:00,
2013-06-29 10:21:00,70.1,59.9,29.98,NW,310,2.0,12.0,70,0.00,,,0.00,WUHU216DAVISVP2,2013-06-29 15:21:00,
2013-06-29 10:26:00,70.1,58.6,29.98,NW,312,6.0,15.0,67,0.00,,,0.00,WUHU216DAVISVP2,2013-06-29 15:26:00,
2013-06-29 10:31:00,69.9,58.2,29.98,NNE,28,4.0,15.0,66,0.00,,,0.00,WUHU216DAVISVP2,2013-06-29 15:31:00,
2013-06-29 10:36:00,70.6,58.7,29.98,NNE,29,3.0,15.0,66,0.00,,,0.00,WUHU216DAVISVP2,2013-06-29 15:36:00,
2013-06-29 10:41:00,71.1,58.7,29.98,NNE,15,3.0,15.0,65,0.00,,,0.00,WUHU216DAVISVP2,2013-06-29 15:41:00,
2013-06-29 10:46:00,71.5,58.4,29.98,SW,233,3.0,11.0,63,0.00,,,0.00,WUHU216DAVISVP2,2013-06-29 15:46:00,
2013-06-29 10:51:00,71.8,58.3,29.98,NE,51,4.0,11.0,62,0.00,,,0.00,WUHU216DAVISVP2,2013-06-29 15:51:00,
2013-06-29 10:56:00,72.2,58.7,29.98,WNW,298,5.0,11.0,62,0.00,,,0.00,WUHU216DAVISVP2,2013-06-29 15:56:00,
2013-06-29 11:01:00,72.2,57.3,29.98,NNW,343,5.0,14.0,59,0.00,,,0.00,WUHU216DAVISVP2,2013-06-29 16:01:00,
2013-06-29 11:06:00,72.5,58.5,29.98,NW,314,3.0,14.0,61,0.00,,,0.00,WUHU216DAVISVP2,2013-06-29 16:06:00,
2013-06-29 11:11:00,73.1,58.6,29.98,NNW,328,4.0,14.0,60,0.00,,,0.00,WUHU216DAVISVP2,2013-06-29 16:11:00,
2013-06-29 11:16:00,73.1,58.6,29.98,NNW,340,2.0,14.0,60,0.00,,,0.00,WUHU216DAVISVP2,2013-06-29 16:16:00,
2013-06-29 11:21:00,73.4,57.9,29.98,North,0,3.0,14.0,58,0.00,,,0.00,WUHU216DAVISVP2,2013-06-29 16:21:00,
2013-06-29 11:26:00,74.0,58.0,29.98,NW,325,3.0,14.0,57,0.00,,,0.00,WUHU216DAVISVP2,2013-06-29 16:26:00,
2013-06-29 11:31:00,74.0,56.4,29.99,North,355,4.0,10.0,54,0.00,,,0.00,WUHU216DAVISVP2,2013-06-29 16:31:00,
2013-06-29 11:36:00,74.1,57.1,29.98,NE,55,4.0,11.0,55,0.00,,,0.00,WUHU216DAVISVP2,2013-06-29 16:36:00,
2013-06-29 11:41:00,74.0,57.5,29.99,NNE,17,6.0,11.0,56,0.00,,,0.00,WUHU216DAVISVP2,2013-06-29 16:41:00,
2013-06-29 11:46:00,74.0,57.5,29.98,NW,323,2.0,12.0,56,0.00,,,0.00,WUHU216DAVISVP2,2013-06-29 16:46:00,
2013-06-29 11:51:00,74.4,57.3,29.98,ENE,75,5.0,12.0,55,0.00,,,0.00,WUHU216DAVISVP2,2013-06-29 16:51:00,
2013-06-29 11:56:00,74.8,58.2,29.98,West,278,1.0,12.0,56,0.00,,,0.00,WUHU216DAVISVP2,2013-06-29 16:56:00,
2013-06-29 12:01:00,75.0,57.4,29.99,NNW,343,3.0,12.0,54,0.00,,,0.00,WUHU216DAVISVP2,2013-06-29 17:01:00,
2013-06-29 12:06:00,75.1,57.5,29.99,NNE,28,4.0,10.0,54,0.00,,,0.00,WUHU216DAVISVP2,2013-06-29 17:06:00,
2013-06-29 12:11:00,75.1,57.5,29.98,NNE,28,4.0,14.0,54,0.00,,,0.00,WUHU216DAVISVP2,2013-06-29 17:11:00,
2013-06-29 12:16:00,75.4,57.2,29.99,NW,308,4.0,14.0,53,0.00,,,0.00,WUHU216DAVISVP2,2013-06-29 17:16:00,
2013-06-29 12:21:00,75.4,57.7,29.98,ENE,65,4.0,14.0,54,0.00,,,0.00,WUHU216DAVISVP2,2013-06-29 17:21:00,
2013-06-29 12:26:00,75.7,58.0,29.99,North,351,4.0,14.0,54,0.00,,,0.00,WUHU216DAVISVP2,2013-06-29 17:26:00,
2013-06-29 12:31:00,75.9,56.6,29.99,North,10,3.0,12.0,51,0.00,,,0.00,WUHU216DAVISVP2,2013-06-29 17:31:00,
2013-06-29 12:36:00,76.2,57.4,29.99,NE,34,3.0,12.0,52,0.00,,,0.00,WUHU216DAVISVP2,2013-06-29 17:36:00,
2013-06-29 12:41:00,76.7,57.3,29.99,NNE,30,2.0,8.0,51,0.00,,,0.00,WUHU216DAVISVP2,2013-06-29 17:41:00,
2013-06-29 12:46:00,76.5,57.1,29.99,NE,36,2.0,8.0,51,0.00,,,0.00,WUHU216DAVISVP2,2013-06-29 17:46:00,
2013-06-29 12:51:00,76.0,57.2,29.99,ESE,112,3.0,8.0,52,0.00,,,0.00,WUHU216DAVISVP2,2013-06-29 17:51:00,
2013-06-29 12:56:00,75.6,57.4,29.99,NE,49,2.0,8.0,53,0.00,,,0.00,WUHU216DAVISVP2,2013-06-29 17:56:00,
2013-06-29 13:01:00,75.5,56.2,29.98,NNW,330,3.0,9.0,51,0.00,,,0.00,WUHU216DAVISVP2,2013-06-29 18:01:00,
2013-06-29 13:06:00,75.5,56.2,29.99,NNE,13,2.0,9.0,51,0.00,,,0.00,WUHU216DAVISVP2,2013-06-29 18:06:00,
2013-06-29 13:11:00,76.1,56.2,29.99,NNW,347,3.0,9.0,50,0.00,,,0.00,WUHU216DAVISVP2,2013-06-29 18:11:00,
2013-06-29 13:16:00,76.2,55.6,29.99,NE,49,2.0,9.0,49,0.00,,,0.00,WUHU216DAVISVP2,2013-06-29 18:16:00,
2013-06-29 13:21:00,76.5,56.0,29.99,NE,53,2.0,7.0,49,0.00,,,0.00,WUHU216DAVISVP2,2013-06-29 18:21:00,
2013-06-29 13:26:00,76.8,55.7,29.99,NW,318,4.0,8.0,48,0.00,,,0.00,WUHU216DAVISVP2,2013-06-29 18:26:00,
2013-06-29 13:31:00,77.0,55.9,29.99,NE,42,2.0,8.0,48,0.00,,,0.00,WUHU216DAVISVP2,2013-06-29 18:31:00,
2013-06-29 13:36:00,77.0,55.9,29.98,NE,44,2.0,8.0,48,0.00,,,0.00,WUHU216DAVISVP2,2013-06-29 18:36:00,
2013-06-29 13:41:00,77.0,55.9,29.98,East,82,3.0,8.0,48,0.00,,,0.00,WUHU216DAVISVP2,2013-06-29 18:41:00,
2013-06-29 13:46:00,77.0,55.3,29.98,NNW,329,7.0,10.0,47,0.00,,,0.00,WUHU216DAVISVP2,2013-06-29 18:46:00,
2013-06-29 13:51:00,77.4,55.6,29.98,East,80,1.0,10.0,47,0.00,,,0.00,WUHU216DAVISVP2,2013-06-29 18:51:00,
2013-06-29 13:56:00,77.8,54.8,29.98,NW,322,3.0,10.0,45,0.00,,,0.00,WUHU216DAVISVP2,2013-06-29 18:56:00,
2013-06-29 14:01:00,77.6,55.8,29.98,NNW,327,4.0,10.0,47,0.00,,,0.00,WUHU216DAVISVP2,2013-06-29 19:01:00,
2013-06-29 14:06:00,77.8,54.8,29.98,North,3,2.0,10.0,45,0.00,,,0.00,WUHU216DAVISVP2,2013-06-29 19:06:00,
2013-06-29 14:11:00,77.7,55.9,29.98,NNE,18,2.0,10.0,47,0.00,,,0.00,WUHU216DAVISVP2,2013-06-29 19:11:00,
2013-06-29 14:16:00,78.2,55.8,29.98,NNE,12,3.0,7.0,46,0.00,,,0.00,WUHU216DAVISVP2,2013-06-29 19:16:00,
2013-06-29 14:21:00,77.7,55.3,29.98,NNE,32,1.0,7.0,46,0.00,,,0.00,WUHU216DAVISVP2,2013-06-29 19:21:00,
2013-06-29 14:26:00,77.3,54.9,29.98,NE,51,2.0,7.0,46,0.00,,,0.00,WUHU216DAVISVP2,2013-06-29 19:26:00,
2013-06-29 14:31:00,77.9,54.2,29.98,NW,307,4.0,9.0,44,0.00,,,0.00,WUHU216DAVISVP2,2013-06-29 19:31:00,
2013-06-29 14:36:00,77.7,55.3,29.98,ENE,59,3.0,9.0,46,0.00,,,0.00,WUHU216DAVISVP2,2013-06-29 19:36:00,
2013-06-29 14:41:00,77.4,55.6,29.98,SSW,193,3.0,9.0,47,0.00,,,0.00,WUHU216DAVISVP2,2013-06-29 19:41:00,
2013-06-29 14:46:00,77.1,55.4,29.99,North,358,6.0,9.0,47,0.00,,,0.00,WUHU216DAVISVP2,2013-06-29 19:46:00,
2013-06-29 14:51:00,76.6,55.5,29.99,WNW,297,5.0,9.0,48,0.00,,,0.00,WUHU216DAVISVP2,2013-06-29 19:51:00,
2013-06-29 14:56:00,76.8,55.1,29.99,NNW,329,3.0,8.0,47,0.00,,,0.00,WUHU216DAVISVP2,2013-06-29 19:56:00,
2013-06-29 15:01:00,77.2,56.0,29.99,NE,53,1.0,12.0,48,0.00,,,0.00,WUHU216DAVISVP2,2013-06-29 20:01:00,
2013-06-29 15:06:00,77.6,56.4,29.99,NE,49,3.0,12.0,48,0.00,,,0.00,WUHU216DAVISVP2,2013-06-29 20:06:00,
2013-06-29 15:11:00,76.9,55.8,29.99,North,357,3.0,12.0,48,0.00,,,0.00,WUHU216DAVISVP2,2013-06-29 20:11:00,
2013-06-29 15:16:00,76.3,55.2,29.99,ENE,62,1.0,12.0,48,0.00,,,0.00,WUHU216DAVISVP2,2013-06-29 20:16:00,
2013-06-29 15:21:00,75.9,54.9,29.99,NNE,14,1.0,6.0,48,0.00,,,0.00,WUHU216DAVISVP2,2013-06-29 20:21:00,
2013-06-29 15:26:00,75.7,55.8,29.99,SE,127,1.0,5.0,50,0.00,,,0.00,WUHU216DAVISVP2,2013-06-29 20:26:00,
2013-06-29 15:31:00,75.8,56.5,29.99,NW,315,1.0,4.0,51,0.00,,,0.00,WUHU216DAVISVP2,2013-06-29 20:31:00,
2013-06-29 15:36:00,76.1,56.1,29.99,North,6,0.0,4.0,50,0.00,,,0.00,WUHU216DAVISVP2,2013-06-29 20:36:00,
2013-06-29 15:41:00,76.1,55.0,29.99,ENE,60,1.0,4.0,48,0.00,,,0.00,WUHU216DAVISVP2,2013-06-29 20:41:00,
2013-06-29 15:46:00,75.9,55.4,29.99,NNE,22,1.0,5.0,49,0.00,,,0.00,WUHU216DAVISVP2,2013-06-29 20:46:00,
2013-06-29 15:51:00,75.9,54.8,29.99,NNW,331,1.0,6.0,48,0.00,,,0.00,WUHU216DAVISVP2,2013-06-29 20:51:00,
2013-06-29 15:56:00,76.2,55.6,29.99,West,272,2.0,6.0,49,0.00,,,0.00,WUHU216DAVISVP2,2013-06-29 20:56:00,
2013-06-29 16:01:00,77.2,56.0,29.99,WNW,293,1.0,6.0,48,0.00,,,0.00,WUHU216DAVISVP2,2013-06-29 21:01:00,
2013-06-29 16:06:00,78.4,56.6,29.99,West,278,1.0,6.0,47,0.00,,,0.00,WUHU216DAVISVP2,2013-06-29 21:06:00,
2013-06-29 16:11:00,78.0,55.6,29.98,NNW,343,1.0,5.0,46,0.00,,,0.00,WUHU216DAVISVP2,2013-06-29 21:11:00,
2013-06-29 16:16:00,77.2,55.4,29.99,NNE,30,3.0,5.0,47,0.00,,,0.00,WUHU216DAVISVP2,2013-06-29 21:16:00,
2013-06-29 16:21:00,76.9,56.4,29.99,ENE,74,1.0,5.0,49,0.00,,,0.00,WUHU216DAVISVP2,2013-06-29 21:21:00,
2013-06-29 16:26:00,77.3,56.1,29.99,NNW,328,4.0,6.0,48,0.00,,,0.00,WUHU216DAVISVP2,2013-06-29 21:26:00,
2013-06-29 16:31:00,77.6,56.4,29.99,North,4,6.0,6.0,48,0.00,,,0.00,WUHU216DAVISVP2,2013-06-29 21:31:00,
2013-06-29 16:36:00,77.5,56.3,29.99,NNW,330,2.0,7.0,48,0.00,,,0.00,WUHU216DAVISVP2,2013-06-29 21:36:00,
2013-06-29 16:41:00,77.4,54.4,29.99,NNW,329,3.0,10.0,45,0.00,,,0.00,WUHU216DAVISVP2,2013-06-29 21:41:00,
2013-06-29 16:46:00,77.4,55.0,29.99,NE,55,2.0,10.0,46,0.00,,,0.00,WUHU216DAVISVP2,2013-06-29 21:46:00,
2013-06-29 16:51:00,77.7,55.3,29.98,ENE,65,1.0,10.0,46,0.00,,,0.00,WUHU216DAVISVP2,2013-06-29 21:51:00,
2013-06-29 16:56:00,78.1,55.0,29.98,NW,323,2.0,9.0,45,0.00,,,0.00,WUHU216DAVISVP2,2013-06-29 21:56:00,
2013-06-29 17:01:00,78.7,56.2,29.98,NE,38,2.0,7.0,46,0.00,,,0.00,WUHU216DAVISVP2,2013-06-29 22:01:00,
2013-06-29 17:06:00,78.7,55.6,29.98,North,356,2.0,4.0,45,0.00,,,0.00,WUHU216DAVISVP2,2013-06-29 22:06:00,
2013-06-29 17:11:00,79.0,55.9,29.98,NE,37,2.0,7.0,45,0.00,,,0.00,WUHU216DAVISVP2,2013-06-29 22:11:00,
2013-06-29 17:16:00,78.8,55.7,29.98,WSW,248,3.0,7.0,45,0.00,,,0.00,WUHU216DAVISVP2,2013-06-29 22:16:00,
2013-06-29 17:21:00,78.5,56.0,29.98,WNW,292,1.0,7.0,46,0.00,,,0.00,WUHU216DAVISVP2,2013-06-29 22:21:00,
2013-06-29 17:26:00,78.8,55.0,29.98,NNW,344,2.0,7.0,44,0.00,,,0.00,WUHU216DAVISVP2,2013-06-29 22:26:00,
2013-06-29 17:31:00,78.8,55.0,29.98,NNW,330,2.0,6.0,44,0.00,,,0.00,WUHU216DAVISVP2,2013-06-29 22:31:00,
2013-06-29 17:36:00,79.0,55.2,29.98,East,88,3.0,7.0,44,0.00,,,0.00,WUHU216DAVISVP2,2013-06-29 22:36:00,
2013-06-29 17:41:00,79.1,55.9,29.98,West,280,2.0,7.0,45,0.00,,,0.00,WUHU216DAVISVP2,2013-06-29 22:41:00,
2013-06-29 17:46:00,79.2,56.0,29.98,WSW,258,2.0,7.0,45,0.00,,,0.00,WUHU216DAVISVP2,2013-06-29 22:46:00,
2013-06-29 17:51:00,79.4,55.6,29.98,North,3,1.0,7.0,44,0.00,,,0.00,WUHU216DAVISVP2,2013-06-29 22:51:00,
2013-06-29 17:56:00,79.3,53.5,29.98,NNW,328,2.0,8.0,41,0.00,,,0.00,WUHU216DAVISVP2,2013-06-29 22:56:00,
2013-06-29 18:01:00,79.0,53.9,29.98,North,2,2.0,9.0,42,0.00,,,0.00,WUHU216DAVISVP2,2013-06-29 23:01:00,
2013-06-29 18:06:00,79.2,54.8,29.98,NNW,345,1.0,9.0,43,0.00,,,0.00,WUHU216DAVISVP2,2013-06-29 23:06:00,
2013-06-29 18:11:00,79.2,51.3,29.98,ENE,72,5.0,9.0,38,0.00,,,0.00,WUHU216DAVISVP2,2013-06-29 23:11:00,
2013-06-29 18:16:00,78.9,51.0,29.98,NW,324,4.0,9.0,38,0.00,,,0.00,WUHU216DAVISVP2,2013-06-29 23:16:00,
2013-06-29 18:21:00,79.0,51.8,29.97,NE,40,2.0,7.0,39,0.00,,,0.00,WUHU216DAVISVP2,2013-06-29 23:21:00,
2013-06-29 18:26:00,79.1,52.7,29.97,NNW,334,2.0,7.0,40,0.00,,,0.00,WUHU216DAVISVP2,2013-06-29 23:26:00,
2013-06-29 18:31:00,79.0,52.5,29.97,ENE,63,2.0,7.0,40,0.00,,,0.00,WUHU216DAVISVP2,2013-06-29 23:31:00,
2013-06-29 18:36:00,78.8,52.4,29.97,NW,326,1.0,7.0,40,0.00,,,0.00,WUHU216DAVISVP2,2013-06-29 23:36:00,
2013-06-29 18:41:00,78.9,51.7,29.98,NNW,327,2.0,7.0,39,0.00,,,0.00,WUHU216DAVISVP2,2013-06-29 23:41:00,
2013-06-29 18:46:00,78.8,52.4,29.98,WNW,300,2.0,7.0,40,0.00,,,0.00,WUHU216DAVISVP2,2013-06-29 23:46:00,
2013-06-29 18:51:00,78.9,52.4,29.98,NW,319,2.0,7.0,40,0.00,,,0.00,WUHU216DAVISVP2,2013-06-29 23:51:00,
2013-06-29 18:56:00,78.8,52.4,29.98,NNE,31,1.0,7.0,40,0.00,,,0.00,WUHU216DAVISVP2,2013-06-29 23:56:00,
2013-06-29 19:01:00,78.7,52.3,29.98,NNW,328,1.0,6.0,40,0.00,,,0.00,WUHU216DAVISVP2,2013-06-30 00:01:00,
2013-06-29 19:06:00,78.7,53.0,29.98,NW,315,3.0,6.0,41,0.00,,,0.00,WUHU216DAVISVP2,2013-06-30 00:06:00,
2013-06-29 19:11:00,78.6,52.9,29.98,NNE,33,1.0,6.0,41,0.00,,,0.00,WUHU216DAVISVP2,2013-06-30 00:11:00,
2013-06-29 19:16:00,78.5,53.5,29.98,NNE,16,1.0,6.0,42,0.00,,,0.00,WUHU216DAVISVP2,2013-06-30 00:16:00,
2013-06-29 19:21:00,78.4,53.4,29.98,NNE,33,2.0,6.0,42,0.00,,,0.00,WUHU216DAVISVP2,2013-06-30 00:21:00,
2013-06-29 19:26:00,78.4,54.0,29.98,North,356,1.0,6.0,43,0.00,,,0.00,WUHU216DAVISVP2,2013-06-30 00:26:00,
2013-06-29 19:31:00,78.4,54.0,29.98,NNE,20,1.0,4.0,43,0.00,,,0.00,WUHU216DAVISVP2,2013-06-30 00:31:00,
2013-06-29 19:36:00,78.4,54.7,29.98,NNW,332,0.0,4.0,44,0.00,,,0.00,WUHU216DAVISVP2,2013-06-30 00:36:00,
2013-06-29 19:41:00,78.4,54.7,29.98,North,354,3.0,10.0,44,0.00,,,0.00,WUHU216DAVISVP2,2013-06-30 00:41:00,
2013-06-29 19:46:00,78.5,54.1,29.98,WNW,286,1.0,10.0,43,0.00,,,0.00,WUHU216DAVISVP2,2013-06-30 00:46:00,
2013-06-29 19:51:00,78.4,54.0,29.98,North,352,1.0,10.0,43,0.00,,,0.00,WUHU216DAVISVP2,2013-06-30 00:51:00,
2013-06-29 19:56:00,78.3,53.9,29.98,North,7,2.0,10.0,43,0.00,,,0.00,WUHU216DAVISVP2,2013-06-30 00:56:00,
2013-06-29 20:01:00,78.2,54.5,29.98,SSE,163,2.0,5.0,44,0.00,,,0.00,WUHU216DAVISVP2,2013-06-30 01:01:00,
2013-06-29 20:06:00,78.1,55.0,29.98,North,7,1.0,5.0,45,0.00,,,0.00,WUHU216DAVISVP2,2013-06-30 01:06:00,
2013-06-29 20:11:00,77.7,55.3,29.98,NNW,336,1.0,5.0,46,0.00,,,0.00,WUHU216DAVISVP2,2013-06-30 01:11:00,
2013-06-29 20:16:00,77.2,54.8,29.98,NNW,335,3.0,5.0,46,0.00,,,0.00,WUHU216DAVISVP2,2013-06-30 01:16:00,
2013-06-29 20:21:00,76.8,55.1,29.98,NNE,33,0.0,6.0,47,0.00,,,0.00,WUHU216DAVISVP2,2013-06-30 01:21:00,
2013-06-29 20:26:00,76.4,54.7,29.98,NNW,340,1.0,6.0,47,0.00,,,0.00,WUHU216DAVISVP2,2013-06-30 01:26:00,
2013-06-29 20:31:00,76.1,55.0,29.98,NE,35,1.0,6.0,48,0.00,,,0.00,WUHU216DAVISVP2,2013-06-30 01:31:00,
2013-06-29 20:36:00,75.8,55.3,29.98,ENE,73,0.0,4.0,49,0.00,,,0.00,WUHU216DAVISVP2,2013-06-30 01:36:00,
2013-06-29 20:41:00,75.5,55.1,29.98,WSW,256,0.0,4.0,49,0.00,,,0.00,WUHU216DAVISVP2,2013-06-30 01:41:00,
2013-06-29 20:46:00,75.3,55.5,29.98,NNW,340,0.0,4.0,50,0.00,,,0.00,WUHU216DAVISVP2,2013-06-30 01:46:00,
2013-06-29 20:51:00,75.0,55.2,29.99,NW,313,1.0,4.0,50,0.00,,,0.00,WUHU216DAVISVP2,2013-06-30 01:51:00,
2013-06-29 20:56:00,74.6,55.4,29.99,NW,313,0.0,4.0,51,0.00,,,0.00,WUHU216DAVISVP2,2013-06-30 01:56:00,
2013-06-29 21:01:00,74.2,55.6,29.99,SW,219,1.0,2.0,52,0.00,,,0.00,WUHU216DAVISVP2,2013-06-30 02:01:00,
2013-06-29 21:06:00,74.0,55.9,29.99,SSW,203,0.0,2.0,53,0.00,,,0.00,WUHU216DAVISVP2,2013-06-30 02:06:00,
2013-06-29 21:11:00,73.8,55.7,29.99,WNW,302,0.0,1.0,53,0.00,,,0.00,WUHU216DAVISVP2,2013-06-30 02:11:00,
2013-06-29 21:16:00,73.6,56.1,29.99,NW,311,0.0,1.0,54,0.00,,,0.00,WUHU216DAVISVP2,2013-06-30 02:16:00,
2013-06-29 21:21:00,73.4,55.7,29.99,NW,311,0.0,1.0,54,0.00,,,0.00,WUHU216DAVISVP2,2013-06-30 02:21:00,
2013-06-29 21:26:00,73.1,56.0,29.99,NW,311,0.0,1.0,55,0.00,,,0.00,WUHU216DAVISVP2,2013-06-30 02:26:00,
2013-06-29 21:31:00,72.7,56.1,29.99,NW,311,0.0,1.0,56,0.00,,,0.00,WUHU216DAVISVP2,2013-06-30 02:31:00,
2013-06-29 21:36:00,72.4,56.3,29.99,NW,311,0.0,0.0,57,0.00,,,0.00,WUHU216DAVISVP2,2013-06-30 02:36:00,
2013-06-29 21:41:00,72.0,55.9,29.99,NW,311,0.0,0.0,57,0.00,,,0.00,WUHU216DAVISVP2,2013-06-30 02:41:00,
2013-06-29 21:46:00,71.7,56.1,30.00,NW,311,0.0,0.0,58,0.00,,,0.00,WUHU216DAVISVP2,2013-06-30 02:46:00,
2013-06-29 21:51:00,71.4,56.3,30.00,NW,311,0.0,0.0,59,0.00,,,0.00,WUHU216DAVISVP2,2013-06-30 02:51:00,
2013-06-29 21:56:00,71.2,56.3,30.00,NW,311,0.0,0.0,59,0.00,,,0.00,WUHU216DAVISVP2,2013-06-30 02:56:00,
2013-06-29 22:01:00,70.9,56.5,30.00,NW,311,0.0,0.0,60,0.00,,,0.00,WUHU216DAVISVP2,2013-06-30 03:01:00,
2013-06-29 22:06:00,70.7,56.3,30.00,NW,311,0.0,0.0,60,0.00,,,0.00,WUHU216DAVISVP2,2013-06-30 03:06:00,
2013-06-29 22:11:00,70.5,56.1,30.00,NW,311,0.0,0.0,60,0.00,,,0.00,WUHU216DAVISVP2,2013-06-30 03:11:00,
2013-06-29 22:16:00,70.3,55.9,30.01,NW,311,0.0,0.0,60,0.00,,,0.00,WUHU216DAVISVP2,2013-06-30 03:16:00,
2013-06-29 22:21:00,70.2,56.3,30.01,NW,311,0.0,0.0,61,0.00,,,0.00,WUHU216DAVISVP2,2013-06-30 03:21:00,
2013-06-29 22:26:00,70.1,56.2,30.01,NW,311,0.0,0.0,61,0.00,,,0.00,WUHU216DAVISVP2,2013-06-30 03:26:00,
2013-06-29 22:31:00,69.9,56.0,30.01,NW,312,0.0,0.0,61,0.00,,,0.00,WUHU216DAVISVP2,2013-06-30 03:31:00,
2013-06-29 22:36:00,69.8,55.9,30.01,NW,313,0.0,0.0,61,0.00,,,0.00,WUHU216DAVISVP2,2013-06-30 03:36:00,
2013-06-29 22:41:00,69.5,56.1,30.01,NW,313,0.0,0.0,62,0.00,,,0.00,WUHU216DAVISVP2,2013-06-30 03:41:00,
2013-06-29 22:46:00,69.2,55.8,30.01,NW,307,0.0,1.0,62,0.00,,,0.00,WUHU216DAVISVP2,2013-06-30 03:46:00,
2013-06-29 22:51:00,69.0,56.1,30.02,NW,307,0.0,1.0,63,0.00,,,0.00,WUHU216DAVISVP2,2013-06-30 03:51:00,
2013-06-29 22:56:00,68.8,55.7,30.02,NW,307,0.0,1.0,63,0.00,,,0.00,WUHU216DAVISVP2,2013-06-30 03:56:00,
2013-06-29 23:01:00,68.5,56.0,30.02,NW,307,0.0,1.0,64,0.00,,,0.00,WUHU216DAVISVP2,2013-06-30 04:01:00,
2013-06-29 23:02:00,68.4,55.9,30.02,NW,307,0.0,1.0,64,0.00,,,0.00,WUHU216DAVISVP2,2013-06-30 04:02:00,
2013-06-29 23:07:00,68.0,56.0,30.02,NW,307,0.0,0.0,65,0.00,,,0.00,WUHU216DAVISVP2,2013-06-30 04:07:00,
2013-06-29 23:12:00,67.7,56.1,30.02,NW,307,0.0,0.0,66,0.00,,,0.00,WUHU216DAVISVP2,2013-06-30 04:12:00,
2013-06-29 23:17:00,67.5,55.7,30.02,NW,307,0.0,0.0,66,0.00,,,0.00,WUHU216DAVISVP2,2013-06-30 04:17:00,
2013-06-29 23:22:00,67.2,56.0,30.02,NW,307,0.0,0.0,67,0.00,,,0.00,WUHU216DAVISVP2,2013-06-30 04:22:00,
2013-06-29 23:27:00,67.0,55.9,30.02,NW,307,0.0,0.0,67,0.00,,,0.00,WUHU216DAVISVP2,2013-06-30 04:27:00,
2013-06-29 23:32:00,66.7,55.6,30.03,NW,307,0.0,0.0,67,0.00,,,0.00,WUHU216DAVISVP2,2013-06-30 04:32:00,
2013-06-29 23:37:00,66.4,55.7,30.03,NW,307,0.0,0.0,68,0.00,,,0.00,WUHU216DAVISVP2,2013-06-30 04:37:00,
2013-06-29 23:42:00,66.1,55.8,30.02,NW,307,0.0,0.0,69,0.00,,,0.00,WUHU216DAVISVP2,2013-06-30 04:42:00,
2013-06-29 23:47:00,65.9,56.0,30.02,NW,307,0.0,0.0,70,0.00,,,0.00,WUHU216DAVISVP2,2013-06-30 04:47:00,
2013-06-29 23:52:00,65.8,55.3,30.03,NW,307,0.0,0.0,69,0.00,,,0.00,WUHU216DAVISVP2,2013-06-30 04:52:00,
2013-06-29 23:57:00,65.9,55.4,30.03,NW,307,0.0,0.0,69,0.00,,,0.00,WUHU216DAVISVP2,2013-06-30 04:57:00,